This is the latest recevied weather packets stored in our database for station/object KQ4JKJ. If no packets are shown the sender has not sent any weather packets the latest 10 day(s).
| Time | Temp. | Humidity | Pressure | Rain* | Wind** | Luminosity | Snow |
|---|---|---|---|---|---|---|---|
| 1777665172 | 30° C | 73% | 1004.4 hPa | 0 mm | - | 619 W/m² | - |
| 1777664868 | 30° C | 73% | 1004.4 hPa | 0 mm | - | 626 W/m² | - |
| 1777664564 | 30° C | 72% | 1004.4 hPa | 0 mm | - | 647 W/m² | - |
| 1777664261 | 29.44° C | 72% | 1004.8 hPa | 0 mm | - | 579 W/m² | - |
| 1777663960 | 30° C | 71% | 1004.8 hPa | 0 mm | - | 297 W/m² | - |
| 1777663657 | 30° C | 69% | 1004.9 hPa | 0 mm | - | 184 W/m² | - |
| 1777663353 | 30° C | 69% | 1004.9 hPa | 0 mm | - | 611 W/m² | - |
| 1777663051 | 30.56° C | 68% | 1005 hPa | 0 mm | - | 694 W/m² | - |
| 1777662748 | 30° C | 70% | 1005.1 hPa | 0 mm | - | 719 W/m² | - |
| 1777662444 | 30° C | 70% | 1005 hPa | 0 mm | - | 414 W/m² | - |
| 1777662140 | 30.56° C | 69% | 1005.1 hPa | 0 mm | - | 595 W/m² | - |
| 1777661836 | 31.11° C | 66% | 1005.1 hPa | 0 mm | - | 233 W/m² | - |
| 1777661532 | 31.11° C | 66% | 1005 hPa | 0 mm | - | 700 W/m² | - |
| 1777661228 | 31.11° C | 64% | 1005.1 hPa | 0 mm | - | 748 W/m² | - |
| 1777660924 | 31.67° C | 67% | 1005 hPa | 0 mm | - | 778 W/m² | - |
| 1777660620 | 31.67° C | 65% | 1005.4 hPa | 0 mm | - | 810 W/m² | - |
| 1777660317 | 31.67° C | 66% | 1005.4 hPa | 0 mm | - | 798 W/m² | - |
| 1777660013 | 31.11° C | 67% | 1005.3 hPa | 0 mm | - | 796 W/m² | - |
| 1777659710 | 30° C | 67% | 1005.4 hPa | 0 mm | - | 793 W/m² | - |
| 1777659407 | 30° C | 69% | 1005.4 hPa | 0 mm | - | 173 W/m² | - |
| 1777659104 | 31.11° C | 66% | 1005.2 hPa | 0 mm | - | 370 W/m² | - |
| 1777658802 | 30.56° C | 67% | 1005.1 hPa | 0 mm | - | 814 W/m² | - |
| 1777658498 | 30.56° C | 66% | 1005.5 hPa | 0 mm | - | 812 W/m² | - |
| 1777658195 | 30.56° C | 68% | 1005.3 hPa | 0 mm | - | 228 W/m² | - |
| 1777657892 | 30° C | 70% | 1005.5 hPa | 0 mm | - | 810 W/m² | - |
* Rain latest hour (hover to see other rain measurements)
** Current wind speed in m/s (hover to see current wind gust speed)